Shi Jian 9B

operational
NORAD ID: 38861 Int'l Des: 2012-056 Owner: ZZWYZ Country: CN
LEOCIRCULARRETROGRADESSO

Shi Jian 9Bについて

説明を読み込み中...

リアルタイム位置

3D地球を読み込み中...

次回通過

高度履歴

Altitude vs Time

uPlot chart will show altitude changes over time

軌道要素

1 38861U 12056B 26062.55462517 .00003055 00000-0 31498-3 0 9992
2 38861 97.5910 50.5914 0014604 200.8499 159.2126 14.90856031723982
Epoch: Mar 3, 2026 • Age: 34 hours

現在のステータス

高度 610.6 km
速度 7.55 km/s
衛星直下点 40.92°N, 86.1°E
打ち上げ日 Oct 14, 2012
運用期間 13.3 years
タイプ other

技術仕様

分類 Payload
質量 260.00 kg
乾燥質量 260.00 kg
総質量 260.00 kg
長さ 1.50 m
直径 1.90 m
スパン 4.00 m
形状 Box + 1 Pan
製造者 DFHZ
バスタイプ CAST-100
フェーズステータス In Orbit
所有者/国 ZZWYZ/CN

大規模コンステレーション

Loading constellations...